Regional Weather Roundup
Issued by NWS Wakefield, VA

Home | Current Version | Previous Version | Text Only | Print | Product List | Glossary On
Versions: 1 2 3 4 5 6 7 8 9 10 11 12 13 14 15 16 17 18 19 20 21 22 23 24 25 26 27 28 29 30 31 32 33 34 35 36 37 38 39 40 41 42 43 44 45 46 47 48 49 50
000
ASUS41 KAKQ 051715
RWRAKQ

REGIONAL WEATHER ROUNDUP
NATIONAL WEATHER SERVICE WAKEFIELD VA
1200 PM EST MON DEC 05 2016

Note: "fair" indicates few or no clouds below 12,000 feet with no
significant weather and/or obstructions to visibility. * = Denotes
station may not report precipitation (e.g., rain,snow,etc.),
thunder or fog.

VAZ042-051-052>054-056-051800-
NORTHERN VIRGINIA

CITY           SKY/WX    TMP DP  RH WIND       PRES   REMARKS
WASH NATIONAL  MOSUNNY   53  43  68 NW10G16   30.03F
DULLES         MOSUNNY   51  41  68 N8        30.02F
FORT BELVOIR   SUNNY     53  40  61 W3        30.02F
QUANTICO       MOSUNNY   44  41  89 S6        30.05S
FREDERICKSBRG* MOSUNNY   46  44  93 N3        30.03F
STAFFORD*      CLOUDY    44  42  94 N3        30.08S
WARRENTON      MOSUNNY   47  38  73 CALM      30.03S
CULPEPER*      PTSUNNY   46  42  88 CALM      30.04F
MANASSAS*      MOSUNNY   46  43  87 CALM      30.03F
LEESBURG*      MOSUNNY   52  45  76 CALM      30.02F
WINCHESTER     SUNNY     50  34  53 NW12      30.00F
FRONT ROYAL*   FAIR      52  36  54 NW7       30.00S
LURAY*         FAIR      54  39  58 NW3       30.01S
$$

VAZ048-049-060>072-079>083-051800-
CENTRAL AND SOUTH CENTRAL VIRGINIA

CITY           SKY/WX    TMP DP  RH WIND       PRES   REMARKS
RICHMOND       CLOUDY    46  41  82 N8        30.03S
CHESTERFIELD*  CLOUDY    46  30  53 N5        30.05S
PETERSBURG*    CLOUDY    46  42  86 N5        30.04R
HANOVER        CLOUDY    44  40  85 N5        30.05S
TAPPAHANNOCK*  CLOUDY    45  45 100 N3        30.04F
QUINTON*       CLOUDY    45  43  93 N7        30.03S
CHARLOTTSVILLE MOSUNNY   50  43  77 CALM      30.02F
GORDONSVILLE*  FAIR      48  43  84 CALM      30.02F
ORANGE*          N/A     45  43  93 CALM      30.04F
LOUISA*        CLOUDY    46  45  93 CALM      30.02S
BUMPASS*       CLOUDY    43  42  97 NW3       30.03F
FARMVILLE*     MOSUNNY   50  46  87 CALM      30.01F
CREWE*         FAIR      48  47  97 NW3       30.02S
FORT PICKETT*  FAIR      50  43  78 NW6       30.02F
CHASE CITY*    PTSUNNY   46  44  95 W7        30.04S
CLARKSVILLE*   PTSUNNY   46  45  93 N5        30.03F
SOUTH HILL*    SUNNY     50  45  82 W3        30.08S
LAWRENCEVILLE* FAIR      50  44  80 NW3       30.02F
EMPORIA*       MOSUNNY   50  43  76 W5        30.03F
$$

VAZ088>098-051800-
SOUTHEAST VIRGINIA

CITY           SKY/WX    TMP DP  RH WIND       PRES   REMARKS
NORFOLK        CLOUDY    49  46  90 N10       30.00F
VIRGINIA BEACH CLOUDY    48  45  89 N17       29.99S
NORFOLK NAVAL  PTSUNNY   51  47  86 N9        30.02S
WEST POINT*    CLOUDY    45  43  94 NW5       30.06R
SALUDA*        CLOUDY    43  43 100 NW7       30.03S
NEWPORT NEWS   PTSUNNY   50  45  83 N7        30.02S
LANGLEY AFB    PTSUNNY   50  47  88 N10       30.01S
FORT EUSTIS    MOSUNNY   51  45  79 NW7       29.99F
WILLIAMSBURG*  MOSUNNY   54  46  76 CALM      30.03S
HR EXEC AP*    CLOUDY    50  45  81 N5        29.99F
FRANKLIN*      CLOUDY    50  45  80 NW7       30.02F
US460-WAKEFLD  CLOUDY    49  44  83 VRB5      30.02F
$$

VAZ020-022-025-037-045-051800-
WEST CENTRAL AND SOUTHWEST VIRGINIA

CITY           SKY/WX    TMP DP  RH WIND       PRES   REMARKS
STAUNTON*      MOSUNNY   52  35  52 N6        30.03S
WAYNESBORO*    FAIR      52  35  52 NW7       30.01S
HOT SPRINGS VA PTSUNNY   43  34  70 W9G16     29.99S
LYNCHBURG      MOSUNNY   49  42  77 S5        30.03S
DANVILLE       MOSUNNY   50  45  83 CALM      30.03F
SOUTH BOSTON*  CLOUDY    46  44  95 CALM      30.04F
MARTINSVILLE   MOSUNNY   49  44  83 CALM      30.05F
ROANOKE        SUNNY     55  38  52 NW13      30.03F
BLACKSBURG     MOSUNNY   50  38  62 NW10      30.06S
DUBLIN*        SUNNY     51  38  61 N9        30.05S
MARION*        CLOUDY    50  41  69 W8        30.06F
HILLSVILLE*    SUNNY     48  38  70 N14       30.00F
RICHLANDS*     CLOUDY    45  37  73 CALM      30.05F
WISE*          CLOUDY    45  41  87 E3        30.05F
ABINGDON*      CLOUDY    50  40  67 NE3       30.06S
$$

MDZ021>025-VAZ099-100-051800-
SOUTHERN MARYLAND AND THE DELMARVA PENINSULA

CITY           SKY/WX    TMP DP  RH WIND       PRES   REMARKS
PATUXENT RIVER MOSUNNY   48  41  76 N10       30.02F
BAY BRIDGE APT SUNNY     48  43  81 NW7       30.01F
LEONARDTOWN    SUNNY     50  41  71 CALM      30.03F
DOVER          PTSUNNY   48  46  93 NW8       29.99F
GEORGETOWN     CLOUDY    49  42  77 VRB6      30.01F
EASTON         PTSUNNY   48  41  76 NW5       30.05F
CAMBRIDGE      CLOUDY    45  41  87 W7        30.01F
SALISBURY      CLOUDY    50  44  80 NW8       30.01S
OCEAN CITY     CLOUDY    47  44  90 N13       30.01S
WALLOPS ISLAND PTSUNNY   49  47  93 NW12      30.00F
ACCOMACK*      CLOUDY    47  45  90 N9        30.01S
$$

NCZ012>017-030>032-051800-
NORTH CENTRAL AND EASTERN NORTH CAROLINA

CITY           SKY/WX    TMP DP  RH WIND       PRES   REMARKS
ROANOKE RAPIDS FAIR      52  46  82 NW9       30.01F
RALEIGH        MOSUNNY   55  46  71 NE5       30.03F
ELIZABETH CITY SUNNY     56  50  80 N8        29.98F
AHOSKIE*       PTSUNNY   50  45  84 NW5       30.01F
EDENTON*       MOSUNNY   56  50  80 N7        29.99F
CURRITUCK*     PTSUNNY   56  50  82 N9        29.98F
KILL DEVIL HLS CLOUDY    53  53  99 N8        29.96S
MANTEO         CLOUDY    52  51  96 N9        29.97F
CAPE HATTERAS  CLOUDY    54  51  90 VRB5      29.97S
TARBORO*       NOT AVBL
GOLDSBORO      SUNNY     56  50  79 N9        29.99F
WASHINGTON     SUNNY     55  48  76 NW8       30.00F
GREENVILLE     MOSUNNY   52  48  87 NW3       30.02F
NEW BERN       MOSUNNY   54  48  80 N9        30.00F
WILMINGTON     MOSUNNY   56  51  84 NW12      29.99F
$$

VAZ048-051800-
ELSEWHERE

CITY           SKY/WX    TMP DP  RH WIND       PRES   REMARKS
HARRISBURG PA  PTSUNNY   45  41  86 W3        30.00F
BALTIMORE      MOSUNNY   53  40  61 NW9G23    30.00F
ANNAPOLIS      SUNNY     50  42  74 N6        30.01F
ANDREWS AFB    SUNNY     51  41  69 NW12      30.00F
PHILADELPHIA   MOSUNNY   46  40  79 W8        30.00F
HENDERSON NC   SUNNY     49  42  75 NW7       30.02F
GREENSBORO     MOSUNNY   55  46  71 NE6       30.01F
ROCKY MOUNT    NOT AVBL
$$

VAZ100-051800-
MARINE

STATION/POSITION TIME  TEMP    WIND        PRES    WAVE   SWELL
                       AIR SEA DIR/SP/G            HT/PER HT/PER
                 (UTC) (F)     (DEG/KT/KT) (MB)    (FT/S) (FT/S)
BRANDYWINE LGT   1648   45     330/  7/ 10   N/A
CAPE MAY NJ      1648   46 48  320/ 10/ 13 1015.7F
LEWES DE         1648   46 49  320/  9/ 11 1015.9F
OCEAN-CITY-INLET 1648   46 50  360/  9/ 11 1016.5R
WACHAPREAGUE VA  1648   49 49  300/  4/ 15 1015.8F
THOMAS POINT MD  1700   47 49  310/  4/  5   N/A
GOOSES REEF MD   1700   45 50   30/  4/  6 1017.2
COVE POINT MD    1648   44      10/  6/  9 1017.1F
SOLOMONS ISLAND  1648   45 51  340/  7/ 10   N/A
BISHOPS HEAD MD  1648   45 45  290/  8/ 10 1016.6F
PINEY POINT MD   1648          310/ 10/ 11   N/A
POTOMAC MD       1700   44 50  340/ 12/ 14 1015.7    1/ 2
CAMBRIDGE MD     1648   44 47  290/  6/  8 1015.8F
LEWISETTA VA     1648   46 48  300/  7/ 10 1016.4F
RAPPAHANNOCK LGT 1648          340/ 12/ 15 1016.9S
STINGRAY PT      1700   45     350/  8/ 10 1016.9    1
YORK RVR RNG VA  1648   46     350/  9/ 10 1016.0R
YORKTOWN VA      1648   46 52  300/  8/ 11 1016.2R
JAMESTOWN VA     1700   47 52  300/  8/ 12   N/A     0
DOMINION TERM VA 1648   47     330/ 10/ 12 1016.2S
KIPTOPEKE VA     1648      52  350/ 12/ 18   N/A
CHES BAY BRIDGE  1648   46 54  350/ 11/ 15 1016.0S
CAPE HENRY VA    1648   47     330/ 16/ 17   N/A
WILLOUBY STN VA  1648   48     330/  9/ 11 1017.0S
S CRANEY ISL VA  1648   48     310/  6/ 10 1016.0S
CAPE HENRY BUOY  1642      56                N/A     3/10
1ST LANDING BUOY 1700   47 54              1016.0    2/ 3
CAPE CHARLES BUO 1656      55                N/A     2/ 8
OFFSHORE WE BUOY 1651      56                N/A     3/ 9
64NM E OF VA BCH 1650   56 60  360/ 17/ 21 1013.3R   5/ 5   2/ 9
DUCK PIER NC     1648   51 54  360/ 15/ 16 1014.2F
44100 DUCK FRF   1635      56                N/A     4/ 5
OREGON INLET NC  1636   54 56  340/ 11/ 15 1014.3F
HATTERAS NC      1648   53 60  330/ 14/ 17 1014.4F
DIAMOND SHLS NC  1650   57 73  350/ 17/ 23 1013.8S   6/ 7   2/ 9
CAPE LOOKOUT NC  1700   53     330/ 10/ 12 1014.9F
$$



USA.gov is the U.S. government's official web portal to all federal, state and local government web resources and services.